sat.trackr.live / text

‹ back to catalog

STARLINK-4558

NORAD 53426 · 2022-097AQ

PAYLOAD ACTIVE UNKNOWN

§ Identity

Operator
Country
US
Launch date
2022-08-10
Launch site
AFETR
Launch vehicle
Mass (kg)
RCS (m²)

Purposes: comms

External: N2YO · Heavens-Above · Gunter

§ Orbital elements

Epoch: 2026-05-25T05:03:05.788224Z

Period
95.44 min
Inclination
53.2123°
Eccentricity
0.0001379
Mean motion
15.08842141 rev/d
Perigee alt
538.8 km
Apogee alt
540.7 km
Semi-major
6,917.9 km
B*
-1.1029e-5
RAAN
120.7589°
Arg perigee
96.6620°
Mean anomaly
263.4529°
Rev number
21,033

§ Raw data

STARLINK-45581 53426U 22097AQ  26145.21048366 -.00000463  00000+0 -11029-4 0  99992 53426  53.2123 120.7589 0001379  96.6620 263.4529 15.08842141210333

JSON: /api/v1/satellites/53426 · /tle

For live sub-satellite position, see the globe view (requires WebGL).

§ Visibility from observer

Set your observer location to see the next 7 days of passes ≥ 10°. The values pass through the URL so the page stays shareable.

No JS? Fill the form by hand. The geolocation button needs JavaScript.